{"data":{"norad_id":58423,"epoch":"2026-05-24T23:17:33.981216Z","epoch_age_seconds":78349,"freshness":"FRESH","line1":"1 58423U 23180X   26144.97053219 -.00000415  00000+0 -55340-5 0  9992","line2":"2 58423  43.0054 341.5739 0001527 277.6037  82.4641 15.27577569139180","mean_motion":15.27577569,"eccentricity":0.0001527,"inclination_deg":43.0054,"raan_deg":341.5739,"arg_perigee_deg":277.6037,"mean_anomaly_deg":82.4641,"bstar":-5.534e-6,"rev_number":13918,"period_min":94.266898730561,"perigee_km":482.00867110944,"apogee_km":484.10407956627,"semimajor_km":6861.1933753379,"source":"CELESTRAK","updated_at":"2026-05-25T13:38:18.621194Z"}}